Date,TemperatureHighF,TemperatureAvgF,TemperatureLowF,DewpointHighF,DewpointAvgF,DewpointLowF,HumidityHigh,HumidityAvg,HumidityLow,PressureMaxIn,PressureMinIn,WindSpeedMaxMPH,WindSpeedAvgMPH,GustSpeedMaxMPH,PrecipitationSumIn
2013-2-1,46.4,42.7,39.7,42.4,38.4,35.4,99,85,71,29.32,28.97,3,1,11,0.08
2013-2-2,40.5,38.3,35.4,36.7,32.3,29.5,87,79,67,29.80,29.32,2,1,11,0.00
2013-2-3,49.6,44.6,36.5,48.0,43.3,32.7,99,95,82,29.76,29.33,4,1,9,0.11
2013-2-4,49.6,45.2,36.9,48.7,40.6,35.8,99,84,72,29.43,29.14,4,3,11,0.17
2013-2-5,44.4,39.8,36.0,42.8,36.8,32.1,99,89,77,29.14,28.81,5,3,14,0.32
2013-2-6,43.3,40.8,39.7,40.6,34.7,31.3,95,79,69,29.71,29.01,4,3,13,0.02
2013-2-7,43.0,39.5,37.6,40.5,36.9,34.1,99,91,83,29.73,29.55,2,0,5,0.04
2013-2-8,43.2,40.9,38.5,41.6,39.7,36.8,99,96,90,29.75,29.64,2,1,5,0.02
2013-2-9,40.5,38.9,37.2,40.0,38.6,37.0,99,99,94,29.74,29.34,2,1,4,0.14
2013-2-10,39.9,38.8,37.8,39.7,38.6,37.5,99,99,99,29.34,28.81,2,1,5,0.24
2013-2-17,43.5,41.2,39.0,35.8,34.6,34.2,88,77,70,29.64,29.62,2,0,5,0.00
2013-2-18,44.8,40.4,37.0,37.4,35.9,34.5,94,84,70,29.68,29.64,3,1,8,0.00
2013-2-19,42.6,37.3,32.4,39.9,36.1,32.1,99,95,84,29.68,29.62,2,0,3,0.00
2013-2-20,39.9,37.0,33.6,38.9,33.4,25.9,99,87,72,29.82,29.68,2,1,5,0.01
2013-2-21,39.0,35.2,33.3,26.7,23.8,21.5,76,63,53,29.85,29.78,3,1,7,0.00
2013-2-22,37.4,35.2,33.4,27.7,24.3,21.7,72,64,59,29.80,29.76,2,0,7,0.00
2013-2-24,35.4,35.1,34.0,30.8,30.7,30.5,87,84,83,29.98,29.98,1,0,2,0.00
2013-2-25,44.1,39.2,33.8,37.6,34.7,29.8,90,84,77,30.10,29.97,2,1,6,0.00
2013-2-26,42.8,40.8,39.2,37.8,36.3,34.1,91,84,79,30.22,30.08,1,0,2,0.00
2013-2-27,42.8,39.0,35.6,38.5,35.2,33.4,98,86,75,30.22,30.14,1,0,3,0.00
2013-2-28,41.4,36.9,33.1,39.8,36.1,32.6,99,97,90,30.14,30.02,1,0,4,0.00